| time (UTC) | temp F | wind direction | speed knots | gust knots | rain 1hr in | rain 24hr in | rain mn in | humidity % | barometer mb |
| 20260507050039 | 39 | 121 | 0.9 | 2.6 | 0.00 | 0.00 | 0.00 | 59 | 1014.8 |
| 20260507044530 | 39 | 123 | 1.7 | 2.6 | 0.00 | 0.00 | 0.00 | 57 | 1014.8 |
| 20260507043010 | 39 | 96 | 1.7 | 2.6 | 0.00 | 0.00 | 0.00 | 56 | 1014.9 |
| 20260507041508 | 39 | 103 | 2.6 | 3.5 | 0.00 | 0.00 | 0.00 | 55 | 1014.8 |
| 20260507040047 | 40 | 96 | 1.7 | 2.6 | 0.00 | 0.00 | 0.00 | 55 | 1014.9 |
| 20260507034556 | 41 | 94 | 2.6 | 3.5 | 0.00 | 0.00 | 0.00 | 54 | 1015.0 |
| 20260507033041 | 40 | 116 | 2.6 | 4.3 | 0.00 | 0.00 | 0.00 | 54 | 1015.0 |
| 20260507031531 | 41 | 124 | 3.5 | 4.3 | 0.00 | 0.00 | 0.00 | 54 | 1015.3 |
| 20260507030028 | 41 | 97 | 2.6 | 2.6 | 0.00 | 0.00 | 0.00 | 53 | 1015.4 |
| 20260507024545 | 42 | 73 | 1.7 | 2.6 | 0.00 | 0.00 | 0.00 | 52 | 1015.5 |
| 20260507023027 | 43 | 59 | 1.7 | 2.6 | 0.00 | 0.00 | 0.00 | 52 | 1015.5 |
| 20260507021526 | 43 | 58 | 0.0 | 0.0 | 0.00 | 0.00 | 0.00 | 52 | 1015.4 |
| 20260507020026 | 43 | 59 | 0.0 | 1.7 | 0.00 | 0.00 | 0.00 | 51 | 1015.3 |
| 20260507014535 | 42 | 8 | 0.0 | 0.0 | 0.00 | 0.00 | 0.00 | 53 | 1015.4 |
| 20260507013005 | 43 | 8 | 0.0 | 0.0 | 0.00 | 0.00 | 0.00 | 51 | 1015.2 |
| 20260507011505 | 45 | 8 | 0.0 | 0.0 | 0.00 | 0.00 | 0.00 | 48 | 1015.2 |
| 20260507010105 | 48 | 349 | 0.0 | 2.6 | 0.00 | 0.00 | 0.00 | 46 | 1015.2 |
| 20260507004547 | 49 | 341 | 0.9 | 4.3 | 0.00 | 0.00 | 0.00 | 43 | 1015.2 |
| 20260507003029 | 50 | 343 | 3.5 | 7.8 | 0.00 | 0.00 | 0.00 | 42 | 1015.2 |
| 20260507001533 | 51 | 318 | 2.6 | 7.0 | 0.00 | 0.00 | 0.00 | 40 | 1015.1 |
| 20260507000010 | 51 | 25 | 2.6 | 7.8 | 0.00 | 0.00 | 0.00 | 41 | 1015.2 |
| 20260506234508 | 52 | 329 | 1.7 | 10.4 | 0.00 | 0.00 | 0.00 | 40 | 1015.2 |
| 20260506233059 | 52 | 310 | 2.6 | 9.6 | 0.00 | 0.00 | 0.00 | 40 | 1015.3 |
| 20260506231549 | 52 | 288 | 4.3 | 11.3 | 0.00 | 0.00 | 0.00 | 40 | 1015.4 |
| 20260506230030 | 52 | 311 | 1.7 | 7.8 | 0.00 | 0.00 | 0.00 | 40 | 1015.5 |
| 20260506224528 | 52 | 8 | 4.3 | 11.3 | 0.00 | 0.00 | 0.00 | 40 | 1015.6 |
| 20260506223009 | 52 | 293 | 5.2 | 12.2 | 0.00 | 0.00 | 0.00 | 40 | 1015.6 |
| 20260506221506 | 52 | 316 | 1.7 | 9.6 | 0.00 | 0.00 | 0.00 | 40 | 1015.7 |
| 20260506220051 | 50 | 302 | 3.5 | 13.0 | 0.00 | 0.00 | 0.00 | 42 | 1015.8 |
| 20260506214550 | 51 | 311 | 6.1 | 14.8 | 0.00 | 0.00 | 0.00 | 41 | 1016.0 |
| 20260506213027 | 50 | 336 | 3.5 | 10.4 | 0.00 | 0.00 | 0.00 | 42 | 1016.1 |
| 20260506211528 | 50 | 273 | 3.5 | 9.6 | 0.00 | 0.00 | 0.00 | 43 | 1016.2 |
| 20260506210006 | 50 | 9 | 2.6 | 8.7 | 0.00 | 0.00 | 0.00 | 43 | 1016.5 |
| 20260506204505 | 48 | 315 | 4.3 | 13.0 | 0.00 | 0.00 | 0.00 | 43 | 1016.6 |
| 20260506203045 | 49 | 329 | 2.6 | 9.6 | 0.00 | 0.00 | 0.00 | 43 | 1016.7 |
| 20260506201543 | 49 | 314 | 2.6 | 12.2 | 0.00 | 0.00 | 0.00 | 45 | 1016.8 |
| 20260506200022 | 49 | 321 | 3.5 | 8.7 | 0.00 | 0.00 | 0.00 | 45 | 1016.9 |
| 20260506194520 | 47 | 307 | 6.1 | 14.8 | 0.00 | 0.00 | 0.00 | 45 | 1017.0 |
| 20260506193100 | 47 | 316 | 4.3 | 8.7 | 0.00 | 0.00 | 0.00 | 45 | 1017.1 |
| 20260506191559 | 47 | 354 | 3.5 | 10.4 | 0.00 | 0.00 | 0.00 | 45 | 1017.1 |
| 20260506190038 | 47 | 304 | 5.2 | 11.3 | 0.00 | 0.00 | 0.00 | 47 | 1017.2 |
| 20260506184536 | 46 | 328 | 2.6 | 7.8 | 0.00 | 0.00 | 0.00 | 48 | 1017.3 |
| 20260506183017 | 45 | 343 | 5.2 | 10.4 | 0.00 | 0.00 | 0.00 | 49 | 1017.4 |
| 20260506181514 | 45 | 289 | 3.5 | 10.4 | 0.00 | 0.00 | 0.00 | 49 | 1017.4 |
| 20260506180055 | 45 | 323 | 4.3 | 11.3 | 0.00 | 0.00 | 0.00 | 49 | 1017.5 |
| 20260506174600 | 44 | 295 | 2.6 | 7.8 | 0.00 | 0.00 | 0.00 | 50 | 1017.7 |
| 20260506173034 | 44 | 299 | 3.5 | 6.1 | 0.00 | 0.00 | 0.00 | 50 | 1017.7 |
| 20260506171534 | 43 | 314 | 7.0 | 13.0 | 0.00 | 0.00 | 0.00 | 49 | 1017.7 |
| 20260506170020 | 44 | 302 | 4.3 | 11.3 | 0.00 | 0.00 | 0.00 | 50 | 1017.7 |
| 20260506164517 | 43 | 294 | 3.5 | 11.3 | 0.00 | 0.00 | 0.00 | 51 | 1017.6 |
| 20260506163014 | 42 | 295 | 7.0 | 11.3 | 0.00 | 0.00 | 0.00 | 51 | 1017.7 |
| 20260506161511 | 42 | 301 | 4.3 | 13.0 | 0.00 | 0.00 | 0.00 | 52 | 1017.7 |
| 20260506160010 | 42 | 329 | 5.2 | 12.2 | 0.00 | 0.00 | 0.00 | 52 | 1017.8 |
| 20260506154508 | 43 | 305 | 3.5 | 13.9 | 0.00 | 0.00 | 0.00 | 53 | 1017.6 |
| 20260506153007 | 42 | 327 | 1.7 | 6.1 | 0.00 | 0.00 | 0.00 | 56 | 1017.6 |
| 20260506151506 | 42 | 304 | 2.6 | 7.0 | 0.00 | 0.00 | 0.00 | 54 | 1017.4 |
| 20260506150058 | 42 | 310 | 3.5 | 10.4 | 0.00 | 0.00 | 0.00 | 56 | 1017.5 |
| 20260506144602 | 42 | 308 | 2.6 | 6.1 | 0.00 | 0.00 | 0.00 | 58 | 1017.3 |
| 20260506143030 | 42 | 304 | 3.5 | 7.8 | 0.00 | 0.00 | 0.00 | 58 | 1017.3 |
| 20260506141529 | 41 | 301 | 1.7 | 7.0 | 0.00 | 0.00 | 0.00 | 60 | 1017.4 |
| 20260506140011 | 40 | 295 | 2.6 | 6.1 | 0.00 | 0.00 | 0.00 | 61 | 1017.2 |
| 20260506134511 | 40 | 306 | 0.9 | 5.2 | 0.00 | 0.00 | 0.00 | 61 | 1017.3 |
| 20260506133118 | 39 | 262 | 2.6 | 5.2 | 0.00 | 0.00 | 0.00 | 60 | 1017.2 |
| 20260506131551 | 39 | 284 | 0.0 | 5.2 | 0.00 | 0.00 | 0.00 | 65 | 1017.1 |
| 20260506130032 | 38 | 290 | 0.0 | 2.6 | 0.00 | 0.00 | 0.00 | 66 | 1017.0 |
| 20260506124529 | 37 | 304 | 0.0 | 1.7 | 0.00 | 0.00 | 0.00 | 68 | 1016.8 |
| 20260506123009 | 0 | 0.0 | 0.0 | 0.00 | 0.00 | 0.00 | 1016.6 | ||
| 20260506121504 | 0 | 0.0 | 0.0 | 0.00 | 0.00 | 0.00 | 1016.6 | ||
| 20260506120106 | 0 | 0.0 | 0.0 | 0.00 | 0.00 | 0.00 | 1016.4 | ||
| 20260506114538 | 0 | 0.0 | 0.0 | 0.00 | 0.00 | 0.00 | 1016.3 | ||
| 20260506113038 | 0 | 0.0 | 0.0 | 0.00 | 0.00 | 0.00 | 1015.8 | ||
| 20260506111512 | 0 | 0.0 | 0.0 | 0.00 | 0.00 | 0.00 | 1015.8 | ||
| 20260506110009 | 33 | 336 | 0.0 | 0.9 | 0.00 | 0.00 | 0.00 | 72 | 1015.6 |
| 20260506104559 | 34 | 330 | 0.0 | 2.6 | 0.00 | 0.00 | 0.00 | 71 | 1015.3 |
| 20260506103049 | 35 | 341 | 0.0 | 2.6 | 0.00 | 0.00 | 0.00 | 70 | 1015.2 |
| 20260506101534 | 34 | 308 | 0.0 | 1.7 | 0.00 | 0.00 | 0.00 | 71 | 1015.6 |
| 20260506100034 | 34 | 285 | 0.0 | 0.9 | 0.00 | 0.00 | 0.00 | 71 | 1015.6 |
| 20260506094514 | 33 | 285 | 0.0 | 1.7 | 0.00 | 0.00 | 0.00 | 72 | 1015.5 |
| 20260506093011 | 33 | 278 | 0.0 | 1.7 | 0.00 | 0.00 | 0.00 | 71 | 1015.4 |
| 20260506091551 | 34 | 279 | 0.0 | 1.7 | 0.00 | 0.00 | 0.00 | 69 | 1015.4 |
| 20260506090050 | 34 | 311 | 0.0 | 1.7 | 0.00 | 0.00 | 0.00 | 68 | 1015.2 |
| 20260506084539 | 34 | 330 | 0.0 | 2.6 | 0.00 | 0.00 | 0.00 | 68 | 1014.7 |
| 20260506083034 | 34 | 310 | 0.0 | 1.7 | 0.00 | 0.00 | 0.00 | 68 | 1014.9 |
| 20260506081531 | 34 | 310 | 0.0 | 0.0 | 0.00 | 0.00 | 0.00 | 68 | 1014.7 |
| 20260506073026 | 34 | 310 | 0.0 | 0.9 | 0.00 | 0.00 | 0.00 | 67 | 1014.8 |
| 20260506071525 | 34 | 310 | 0.0 | 0.0 | 0.00 | 0.00 | 0.00 | 67 | 1014.6 |
| 20260506061549 | 37 | 326 | 1.7 | 4.3 | 0.00 | 0.00 | 0.00 | 61 | 1014.5 |